Showing default

KINEIS-5B, 62085

Orbit data source: Space-Track

KINEIS-5B, 62085 is a French payload satellite in SSO that was launched on Mon, 25 Nov 2024 UTC via an ELECTRON launch vehicle from the Rocket Lab Launch Complex (RLLC). Payload-class satellites include a variety of spacecraft equipped with specific instruments for various scientific and technological missions. These include communications satellites like Starlink; space stations such as the ISS; scientific satellites like the Hubble; Earth observation satellites from companies like Planet Labs, Umbra, and HawkEye 360; GPS; miniature CubeSats for education and research; and military/defense satellites.

Loading next visibility...
Identifier
62085, 2024-219E
Orbit
SSO
Country
Flag of FRFR
Related business
Manufacturer
KINEIS
Mission
Operational Commercial Communications
Bus & Motor
CUBESAT 16U, Unknown motor
Mass
28 kg wet, 28 kg dry
Launch date (UTC)
2024-11-25 (11 months ago)
Launch vehicle
ELECTRON
Launch site
Rocket Lab Launch Complex (RLLC)
Object type
Payload
Rocket body
Debris
Shape & HBR
Box + 2 Pan + 1 Ant, 1.0 m
Radar Cross Section
0.229 m², Medium (>0.1 m² and < 1m²)

Expand to show TLE details & history
Last TLE update: 15 hours ago

TLE from 15 hours ago
0 KINEIS-5B
1 62085U 24219E   25311.32536596  .00002976  00000-0  42528-3 0  9998
2 62085  97.9844 111.8767 0000820 253.4340 106.6780 14.77423916 51239
Epoch: 2025-11-07T07:48Z
TLE epoch observation values (Epoch: 2025-11-07T07:48:31.618Z)
Latitude
-0.00008°
Longitude
-52.02598°
Altitude
640.648 km
Speed
7.538 km/s
True Right ascension
07h 27m 30s
True Declination
0° 00' 00"
Sunlit
Object was in daylight at epoch
Visualization orbit readout
Latitude
Unknown
Longitude
Unknown
Altitude
Unknown
Speed
Unknown
Apparent Right ascension
Unknown
Apparent Declination
Unknown
Sunlit
N/A
Visualization observer readout
Local Sidereal Time
19:09:14
Azimuth
Unknown
Elevation
Unknown
Doppler factor
Unknown
Orbital elements
Apogee altitude
635.091 km
Perigee altitude
633.94 km
Semi-major axis
7,012.652 km
Eccentricity
0.00008
Inclination
97.9844°
RAAN
111.8767°
Arg. of periapsis
253.434°
True anomaly
106.687°
Mean anomaly
106.678°
Eccentric anomaly
106.6825°
Mean motion
3.6959 °/min
Orbital period
97.41 mins
BSTAR
0.00042528
Loading maneuver chart data...
Computing Atmospheric mass density...
Loading historical data...
Loading historical data...
Loading historical data...
Loading historical data...
Loading historical data...
Loading historical data...
Loading historical data...

Documentation

Showing up to 5 results
|